contact:dominique.lefevre@mio.osupytheas.fr, maurice.libes@osupytheas.fr, didier.mallarino@osupytheas.fr
Project:EMSO http://www.emso-fr.org/EMSO-France
Depth: 2436.0 m
Title:EMSO Ligure Ouest : Data MII capteur AQUADOPP
Date,Latitude,Longitude,X_East,Y_North,Z_Up,Amplitude_X,Amplitude_Y,Amplitude_Z,Batterie,SoundSpeed,Heading,Pitch,Roll,Pressure,TIS,Speed,Direction
, degrees North, degrees East, m.s-1, m.s-1,m.s-1, 1, 1, 1, Volt, m.s-1, degree, degree, degree, dbar, degree_C, m.s-1, degree
2021-06-21T00:04:03,42.805,6.029,0.054,-0.015,0.019,103.0,104.0,101.0,13.4,1505.2,328.5,-0.8,1.8,2470.533,13.28,0.056,105.5
2021-06-21T00:07:03,42.805,6.029,0.048,-0.019,-0.003,102.0,103.0,101.0,13.4,1505.2,327.8,-0.7,1.8,2470.524,13.28,0.051,111.6
2021-06-21T00:10:03,42.805,6.029,0.047,-0.014,-0.015,102.0,103.0,101.0,13.4,1505.2,330.3,-0.8,1.9,2470.539,13.28,0.049,106.6
2021-06-21T00:13:03,42.805,6.029,0.077,-0.041,0.0,103.0,104.0,101.0,13.3,1505.2,328.2,-0.7,1.8,2470.563,13.28,0.087,118.0
2021-06-21T00:16:03,42.805,6.029,0.058,-0.013,-0.007,102.0,105.0,101.0,13.4,1505.2,326.7,-0.8,1.8,2470.547,13.28,0.059,102.6
2021-06-21T00:19:03,42.805,6.029,0.043,-0.04,-0.014,102.0,104.0,101.0,13.4,1505.2,328.8,-0.8,1.8,2470.548,13.28,0.058,132.9
2021-06-21T00:22:03,42.805,6.029,0.047,-0.016,0.016,102.0,104.0,102.0,13.4,1505.2,327.9,-0.8,1.8,2470.55,13.28,0.049,108.8
2021-06-21T00:25:03,42.805,6.029,0.055,-0.025,0.027,103.0,104.0,101.0,13.4,1505.2,329.6,-0.8,1.8,2470.557,13.28,0.06,114.4
2021-06-21T00:28:03,42.805,6.029,0.066,-0.014,0.015,102.0,103.0,101.0,13.4,1505.2,326.4,-0.7,1.8,2470.533,13.28,0.067,102.0
2021-06-21T00:31:03,42.805,6.029,0.065,-0.017,-0.011,103.0,104.0,102.0,13.3,1505.2,327.2,-0.8,1.8,2470.549,13.28,0.067,104.7
2021-06-21T00:34:03,42.805,6.029,0.041,-0.013,0.034,102.0,104.0,100.0,13.4,1505.2,328.4,-0.7,1.9,2470.519,13.28,0.043,107.6
2021-06-21T00:37:03,42.805,6.029,0.025,-0.022,0.002,103.0,104.0,100.0,13.4,1505.2,325.6,-0.7,1.8,2470.521,13.28,0.033,131.3
2021-06-21T00:40:03,42.805,6.029,0.061,-0.013,-0.002,101.0,104.0,101.0,13.4,1505.2,329.3,-0.8,1.8,2470.515,13.28,0.062,102.0
2021-06-21T00:43:03,42.805,6.029,0.056,-0.013,0.052,102.0,103.0,101.0,13.4,1505.2,328.1,-0.7,1.8,2470.54,13.28,0.057,103.1
2021-06-21T00:46:03,42.805,6.029,0.066,-0.016,0.045,102.0,104.0,101.0,13.3,1505.2,330.1,-0.7,1.8,2470.5,13.28,0.067,103.6
2021-06-21T00:49:03,42.805,6.029,0.04,-0.03,0.009,103.0,103.0,102.0,13.3,1505.2,330.2,-0.7,1.8,2470.58,13.28,0.05,126.9
2021-06-21T00:52:03,42.805,6.029,0.044,-0.016,0.012,102.0,103.0,102.0,13.4,1505.2,329.7,-0.8,1.8,2470.53,13.28,0.046,110.0
2021-06-21T00:55:03,42.805,6.029,0.036,-0.013,0.018,102.0,103.0,101.0,13.4,1505.2,330.1,-0.7,1.8,2470.537,13.28,0.038,109.9
2021-06-21T00:58:03,42.805,6.029,0.048,-0.01,-0.002,103.0,103.0,101.0,13.3,1505.2,328.6,-0.8,1.8,2470.581,13.28,0.049,101.8
2021-06-21T01:04:03,42.805,6.029,0.053,-0.024,0.009,103.0,103.0,101.0,13.4,1505.2,328.5,-0.7,1.8,2470.582,13.28,0.058,114.4
2021-06-21T01:07:03,42.805,6.029,0.059,-0.028,-0.005,102.0,104.0,101.0,13.3,1505.2,327.5,-0.7,1.8,2470.589,13.28,0.065,115.4
2021-06-21T01:10:03,42.805,6.029,0.045,-0.036,-0.013,103.0,103.0,101.0,13.4,1505.2,325.2,-0.7,1.8,2470.553,13.28,0.057,128.7
2021-06-21T01:13:03,42.805,6.029,0.036,-0.017,0.002,103.0,103.0,101.0,13.4,1505.2,327.4,-0.8,1.9,2470.546,13.28,0.039,115.3
2021-06-21T01:16:03,42.805,6.029,0.053,-0.011,0.006,101.0,106.0,101.0,13.4,1505.2,325.2,-0.8,1.8,2470.618,13.28,0.054,101.7
2021-06-21T01:19:03,42.805,6.029,0.026,-0.009,0.016,103.0,102.0,102.0,13.3,1505.2,327.0,-0.7,1.8,2470.539,13.28,0.027,109.1
2021-06-21T01:22:03,42.805,6.029,0.053,-0.006,0.025,102.0,104.0,101.0,13.3,1505.2,325.2,-0.7,1.8,2470.539,13.28,0.053,96.5
2021-06-21T01:25:03,42.805,6.029,0.042,-0.032,0.005,103.0,103.0,101.0,13.4,1505.2,328.2,-0.7,1.8,2470.562,13.28,0.052,127.3
2021-06-21T01:28:03,42.805,6.029,0.06,-0.022,-0.021,103.0,103.0,100.0,13.4,1505.2,329.3,-0.7,1.8,2470.588,13.28,0.063,110.1
2021-06-21T01:31:03,42.805,6.029,0.036,-0.015,0.014,103.0,104.0,101.0,13.4,1505.2,330.0,-0.8,1.8,2470.587,13.28,0.039,112.6
2021-06-21T01:34:03,42.805,6.029,0.05,-0.016,0.034,103.0,104.0,101.0,13.3,1505.2,328.5,-0.7,1.8,2470.551,13.28,0.052,107.7
2021-06-21T01:37:03,42.805,6.029,0.038,-0.007,0.011,102.0,103.0,102.0,13.4,1505.2,326.1,-0.7,1.8,2470.555,13.28,0.038,100.4
2021-06-21T01:40:03,42.805,6.029,0.051,-0.029,0.018,103.0,105.0,101.0,13.4,1505.2,326.3,-0.8,1.8,2470.562,13.28,0.058,119.6
2021-06-21T01:43:03,42.805,6.029,0.049,-0.033,0.02,102.0,104.0,101.0,13.3,1505.2,327.7,-0.7,1.9,2470.54,13.28,0.059,124.0
2021-06-21T01:46:03,42.805,6.029,0.078,-0.007,0.029,102.0,105.0,100.0,13.4,1505.2,327.1,-0.7,1.8,2470.564,13.28,0.078,95.1
2021-06-21T01:49:03,42.805,6.029,0.065,-0.015,0.044,103.0,103.0,102.0,13.3,1505.2,328.4,-0.8,1.9,2470.521,13.28,0.066,103.0
2021-06-21T01:52:03,42.805,6.029,0.049,0.01,0.007,104.0,102.0,100.0,13.4,1505.2,328.8,-0.8,1.9,2470.537,13.28,0.05,78.5
2021-06-21T01:55:03,42.805,6.029,0.059,-0.009,0.013,101.0,104.0,101.0,13.3,1505.2,327.0,-0.7,1.8,2470.559,13.28,0.059,98.7
2021-06-21T01:58:03,42.805,6.029,0.042,-0.005,0.012,102.0,104.0,101.0,13.4,1505.2,324.6,-0.8,1.8,2470.578,13.28,0.042,96.8
2021-06-21T02:01:03,42.805,6.029,0.029,-0.003,0.001,103.0,104.0,101.0,13.3,1505.2,329.8,-0.8,1.8,2470.573,13.28,0.029,95.9
2021-06-21T02:04:03,42.805,6.029,0.057,-0.026,0.002,102.0,104.0,102.0,13.3,1505.2,326.7,-0.7,1.8,2470.579,13.28,0.062,114.5
2021-06-21T02:07:03,42.805,6.029,0.04,0.003,0.012,103.0,104.0,100.0,13.4,1505.2,326.1,-0.8,1.8,2470.545,13.28,0.04,85.7
2021-06-21T02:10:03,42.805,6.029,0.046,-0.031,0.016,103.0,104.0,101.0,13.4,1505.2,325.2,-0.8,1.8,2470.569,13.28,0.055,124.0
2021-06-21T02:13:03,42.805,6.029,0.047,-0.029,0.023,102.0,104.0,101.0,13.4,1505.2,330.0,-0.8,1.8,2470.598,13.28,0.055,121.7
2021-06-21T02:16:03,42.805,6.029,0.04,-0.016,0.002,102.0,104.0,101.0,13.3,1505.2,328.5,-0.7,1.8,2470.577,13.28,0.043,111.8
2021-06-21T02:19:03,42.805,6.029,0.069,-0.036,0.023,103.0,103.0,101.0,13.4,1505.2,327.4,-0.8,1.8,2470.6,13.28,0.077,117.6
2021-06-21T02:22:03,42.805,6.029,0.032,-0.018,0.023,102.0,103.0,101.0,13.4,1505.2,327.3,-0.7,1.8,2470.527,13.28,0.036,119.4
2021-06-21T02:25:03,42.805,6.029,0.054,-0.029,0.009,102.0,104.0,101.0,13.3,1505.2,329.9,-0.8,1.8,2470.603,13.28,0.061,118.2
2021-06-21T02:28:03,42.805,6.029,0.054,-0.026,0.014,101.0,105.0,103.0,13.4,1505.2,330.2,-0.7,1.8,2470.615,13.28,0.059,115.7
2021-06-21T02:31:03,42.805,6.029,0.033,-0.015,0.017,102.0,104.0,101.0,13.3,1505.2,329.9,-0.8,1.8,2470.6,13.28,0.036,114.4
2021-06-21T02:34:03,42.805,6.029,0.083,-0.031,0.027,102.0,104.0,102.0,13.4,1505.2,327.8,-0.7,1.8,2470.591,13.28,0.088,110.5
2021-06-21T02:37:03,42.805,6.029,0.06,-0.027,0.023,104.0,103.0,101.0,13.3,1505.2,326.3,-0.8,1.8,2470.616,13.28,0.065,114.2
2021-06-21T02:40:03,42.805,6.029,0.056,-0.019,0.008,103.0,103.0,101.0,13.3,1505.2,327.7,-0.8,1.8,2470.595,13.28,0.059,108.7
2021-06-21T02:43:03,42.805,6.029,0.051,-0.015,0.0,103.0,102.0,102.0,13.4,1505.2,327.9,-0.8,1.8,2470.588,13.28,0.053,106.4
2021-06-21T02:46:03,42.805,6.029,0.053,-0.009,0.024,102.0,105.0,101.0,13.4,1505.2,327.4,-0.7,1.8,2470.615,13.28,0.053,99.6
2021-06-21T02:49:03,42.805,6.029,0.047,-0.009,0.03,104.0,102.0,102.0,13.4,1505.2,328.1,-0.7,1.8,2470.567,13.28,0.047,100.8
2021-06-21T02:52:03,42.805,6.029,0.057,-0.042,0.006,103.0,102.0,100.0,13.4,1505.2,324.3,-0.8,1.8,2470.6,13.28,0.07,126.4
2021-06-21T02:55:03,42.805,6.029,0.052,-0.017,0.014,102.0,104.0,101.0,13.4,1505.2,327.1,-0.8,1.8,2470.632,13.28,0.054,108.1
2021-06-21T02:58:03,42.805,6.029,0.057,-0.02,0.031,103.0,104.0,101.0,13.3,1505.2,326.5,-0.8,1.8,2470.592,13.28,0.06,109.3
2021-06-21T03:04:03,42.805,6.029,0.074,-0.024,-0.002,103.0,103.0,101.0,13.4,1505.2,327.9,-0.8,1.9,2470.658,13.28,0.077,108.0
2021-06-21T03:07:03,42.805,6.029,0.056,-0.019,0.022,103.0,103.0,102.0,13.3,1505.2,328.8,-0.8,1.8,2470.573,13.28,0.059,108.7
2021-06-21T03:10:03,42.805,6.029,0.068,-0.037,0.043,102.0,104.0,100.0,13.3,1505.2,329.3,-0.8,1.9,2470.613,13.28,0.077,118.6
2021-06-21T03:13:03,42.805,6.029,0.044,-0.003,0.034,102.0,103.0,101.0,13.4,1505.2,327.2,-0.7,1.8,2470.632,13.28,0.044,93.9
2021-06-21T03:16:03,42.805,6.029,0.045,-0.02,-0.006,102.0,104.0,101.0,13.3,1505.2,327.4,-0.8,1.8,2470.641,13.28,0.049,114.0
2021-06-21T03:19:03,42.805,6.029,0.037,-0.034,0.019,102.0,104.0,102.0,13.4,1505.2,330.1,-0.8,1.8,2470.607,13.28,0.05,132.6
2021-06-21T03:22:03,42.805,6.029,0.036,-0.015,-0.03,102.0,102.0,101.0,13.4,1505.2,325.7,-0.8,1.8,2470.604,13.28,0.039,112.6
2021-06-21T03:25:03,42.805,6.029,0.044,-0.02,0.003,101.0,105.0,101.0,13.4,1505.2,324.5,-0.8,1.8,2470.595,13.28,0.048,114.4
2021-06-21T03:28:03,42.805,6.029,0.048,-0.006,0.052,104.0,103.0,100.0,13.4,1505.2,328.9,-0.7,1.8,2470.613,13.28,0.048,97.1
2021-06-21T03:31:03,42.805,6.029,0.064,-0.02,0.014,103.0,103.0,102.0,13.3,1505.2,329.0,-0.7,1.8,2470.598,13.28,0.067,107.4
2021-06-21T03:34:03,42.805,6.029,0.04,-0.019,0.019,103.0,103.0,100.0,13.3,1505.2,329.4,-0.8,1.8,2470.612,13.28,0.044,115.4
2021-06-21T03:37:03,42.805,6.029,0.058,-0.03,-0.005,102.0,103.0,101.0,13.4,1505.2,326.5,-0.8,1.8,2470.624,13.28,0.065,117.4
2021-06-21T03:40:03,42.805,6.029,0.042,-0.031,0.018,102.0,104.0,101.0,13.4,1505.2,328.4,-0.7,1.8,2470.61,13.28,0.052,126.4
2021-06-21T03:43:03,42.805,6.029,0.055,-0.034,0.01,101.0,104.0,102.0,13.3,1505.2,325.4,-0.7,1.8,2470.598,13.28,0.064,121.7
2021-06-21T03:46:03,42.805,6.029,0.036,-0.019,0.024,102.0,104.0,101.0,13.4,1505.2,327.3,-0.7,1.8,2470.608,13.28,0.04,117.8
2021-06-21T03:49:03,42.805,6.029,0.042,-0.031,0.008,102.0,105.0,101.0,13.3,1505.2,328.4,-0.8,1.8,2470.588,13.28,0.052,126.4
2021-06-21T03:52:03,42.805,6.029,0.03,-0.044,0.0,102.0,105.0,100.0,13.4,1505.2,328.2,-0.8,1.8,2470.628,13.28,0.053,145.7
2021-06-21T03:55:03,42.805,6.029,0.047,-0.021,-0.002,103.0,103.0,102.0,13.4,1505.2,326.1,-0.7,1.8,2470.621,13.28,0.051,114.1
2021-06-21T03:58:03,42.805,6.029,0.081,-0.013,0.024,102.0,103.0,101.0,13.3,1505.2,329.4,-0.7,1.8,2470.589,13.28,0.082,99.1
2021-06-21T04:04:03,42.805,6.029,0.033,-0.009,0.02,102.0,104.0,101.0,13.4,1505.2,324.5,-0.7,1.8,2470.616,13.28,0.034,105.3
2021-06-21T04:07:03,42.805,6.029,0.063,-0.018,0.044,103.0,104.0,101.0,13.4,1505.2,328.2,-0.8,1.8,2470.588,13.28,0.065,105.9
2021-06-21T04:10:03,42.805,6.029,0.058,-0.024,0.027,104.0,102.0,101.0,13.3,1505.2,327.8,-0.8,1.9,2470.614,13.28,0.062,112.5
2021-06-21T04:13:03,42.805,6.029,0.039,-0.034,0.009,102.0,104.0,101.0,13.4,1505.2,326.3,-0.8,1.8,2470.594,13.28,0.051,131.1
2021-06-21T04:16:03,42.805,6.029,0.045,-0.009,0.014,103.0,103.0,102.0,13.3,1505.2,326.2,-0.7,1.8,2470.57,13.28,0.045,101.3
2021-06-21T04:19:03,42.805,6.029,0.055,-0.023,-0.004,103.0,105.0,100.0,13.4,1505.2,326.4,-0.8,1.8,2470.605,13.28,0.059,112.7
2021-06-21T04:22:03,42.805,6.029,0.065,-0.011,0.053,101.0,103.0,102.0,13.4,1505.2,327.7,-0.8,1.8,2470.572,13.28,0.065,99.6
2021-06-21T04:25:03,42.805,6.029,0.059,-0.028,0.035,102.0,102.0,101.0,13.4,1505.2,328.1,-0.8,1.8,2470.575,13.28,0.065,115.4
2021-06-21T04:28:03,42.805,6.029,0.05,-0.033,0.004,103.0,103.0,100.0,13.4,1505.2,330.2,-0.7,1.8,2470.623,13.28,0.059,123.4
2021-06-21T04:31:03,42.805,6.029,0.048,-0.019,0.023,103.0,104.0,100.0,13.4,1505.2,326.5,-0.8,1.8,2470.566,13.28,0.051,111.6
2021-06-21T04:34:03,42.805,6.029,0.049,-0.021,0.023,103.0,104.0,100.0,13.4,1505.2,326.5,-0.8,1.8,2470.603,13.28,0.053,113.2
2021-06-21T04:37:03,42.805,6.029,0.049,-0.022,0.02,102.0,103.0,102.0,13.4,1505.2,326.8,-0.7,1.8,2470.555,13.28,0.053,114.2
2021-06-21T04:40:03,42.805,6.029,0.058,-0.03,0.026,102.0,103.0,101.0,13.4,1505.2,325.6,-0.8,1.8,2470.572,13.28,0.065,117.4
2021-06-21T04:43:03,42.805,6.029,0.063,-0.027,0.006,102.0,103.0,102.0,13.3,1505.2,326.5,-0.7,1.8,2470.545,13.28,0.068,113.2
2021-06-21T04:46:03,42.805,6.029,0.067,-0.032,0.027,102.0,103.0,101.0,13.3,1505.2,328.4,-0.7,1.8,2470.579,13.28,0.074,115.5
2021-06-21T04:49:03,42.805,6.029,0.044,-0.044,-0.007,102.0,104.0,101.0,13.4,1505.2,326.6,-0.8,1.8,2470.567,13.28,0.062,135.0
2021-06-21T04:52:03,42.805,6.029,0.047,-0.024,0.029,103.0,104.0,101.0,13.3,1505.2,327.8,-0.7,1.8,2470.545,13.28,0.052,117.0
2021-06-21T04:55:03,42.805,6.029,0.048,-0.028,-0.005,103.0,103.0,101.0,13.4,1505.2,325.1,-0.8,1.8,2470.579,13.28,0.055,120.3
2021-06-21T04:58:03,42.805,6.029,0.062,-0.034,0.029,103.0,103.0,101.0,13.4,1505.2,327.0,-0.8,1.8,2470.565,13.28,0.07,118.7
2021-06-21T05:04:03,42.805,6.029,0.029,-0.016,0.031,102.0,103.0,101.0,13.4,1505.2,329.3,-0.8,1.8,2470.6,13.28,0.033,118.9
2021-06-21T05:07:03,42.805,6.029,0.048,-0.034,0.038,103.0,103.0,101.0,13.4,1505.2,328.6,-0.7,1.9,2470.581,13.28,0.058,125.3
2021-06-21T05:10:03,42.805,6.029,0.058,-0.04,-0.003,102.0,103.0,101.0,13.4,1505.2,325.2,-0.8,1.8,2470.578,13.28,0.07,124.6
2021-06-21T05:13:03,42.805,6.029,0.038,-0.02,0.026,102.0,103.0,101.0,13.3,1505.2,325.0,-0.8,1.8,2470.623,13.28,0.042,117.8
2021-06-21T05:16:03,42.805,6.029,0.038,0.003,0.031,105.0,102.0,101.0,13.3,1505.2,327.5,-0.7,1.8,2470.569,13.28,0.038,85.5
2021-06-21T05:19:03,42.805,6.029,0.055,-0.021,0.012,103.0,103.0,100.0,13.4,1505.2,328.0,-0.7,1.8,2470.606,13.28,0.058,110.9
2021-06-21T05:22:03,42.805,6.029,0.056,-0.018,0.021,101.0,104.0,101.0,13.4,1505.2,325.5,-0.7,1.8,2470.579,13.28,0.058,107.8
2021-06-21T05:25:03,42.805,6.029,0.096,-0.061,-0.038,103.0,103.0,100.0,13.4,1505.2,328.9,-0.8,1.8,2470.597,13.28,0.113,122.4
2021-06-21T05:28:03,42.805,6.029,0.06,-0.023,0.037,102.0,102.0,102.0,13.4,1505.2,325.7,-0.7,1.8,2470.537,13.28,0.064,111.0
2021-06-21T05:31:03,42.805,6.029,0.039,-0.031,0.009,102.0,102.0,101.0,13.4,1505.2,327.2,-0.7,1.8,2470.565,13.28,0.049,128.5
2021-06-21T05:34:03,42.805,6.029,0.052,-0.034,0.018,102.0,104.0,101.0,13.4,1505.2,327.8,-0.7,1.8,2470.571,13.28,0.062,123.2
2021-06-21T05:37:03,42.805,6.029,0.056,-0.021,0.02,101.0,104.0,101.0,13.4,1505.2,327.5,-0.8,1.8,2470.563,13.28,0.059,110.6
2021-06-21T05:40:03,42.805,6.029,0.037,-0.045,-0.018,102.0,103.0,100.0,13.4,1505.2,326.3,-0.7,1.8,2470.569,13.28,0.058,140.6
2021-06-21T05:43:03,42.805,6.029,0.039,-0.02,-0.039,103.0,103.0,101.0,13.4,1505.2,325.9,-0.7,1.9,2470.575,13.28,0.043,117.1
2021-06-21T05:46:03,42.805,6.029,0.036,-0.036,-0.016,102.0,104.0,100.0,13.3,1505.2,327.0,-0.8,1.8,2470.573,13.28,0.05,135.0
2021-06-21T05:49:03,42.805,6.029,0.047,-0.029,0.011,102.0,104.0,101.0,13.4,1505.2,328.6,-0.8,1.8,2470.528,13.28,0.055,121.7
2021-06-21T05:52:03,42.805,6.029,0.044,-0.029,-0.003,103.0,103.0,101.0,13.4,1505.2,325.4,-0.7,1.8,2470.565,13.28,0.052,123.4
2021-06-21T05:55:03,42.805,6.029,0.074,-0.03,0.006,101.0,105.0,100.0,13.4,1505.2,324.6,-0.7,1.8,2470.586,13.28,0.079,112.1
2021-06-21T05:58:03,42.805,6.029,0.061,-0.041,0.013,102.0,104.0,102.0,13.4,1505.2,325.2,-0.8,1.8,2470.519,13.28,0.073,123.9
2021-06-21T06:04:03,42.805,6.029,0.04,-0.011,0.036,103.0,103.0,101.0,13.4,1505.2,326.5,-0.7,1.8,2470.591,13.28,0.041,105.4
2021-06-21T06:07:03,42.805,6.029,0.049,-0.015,0.026,102.0,103.0,102.0,13.4,1505.2,325.7,-0.7,1.8,2470.578,13.28,0.051,107.0
2021-06-21T06:10:03,42.805,6.029,0.018,-0.016,-0.014,103.0,103.0,101.0,13.4,1505.2,330.1,-0.8,1.8,2470.53,13.28,0.024,131.6
2021-06-21T06:13:03,42.805,6.029,0.048,-0.035,0.009,101.0,104.0,101.0,13.3,1505.2,328.6,-0.7,1.8,2470.569,13.28,0.059,126.1
2021-06-21T06:16:03,42.805,6.029,0.046,-0.018,-0.005,102.0,103.0,101.0,13.3,1505.2,325.0,-0.8,1.9,2470.542,13.28,0.049,111.4
2021-06-21T06:19:03,42.805,6.029,0.055,-0.014,0.013,102.0,102.0,101.0,13.4,1505.2,327.3,-0.8,1.8,2470.562,13.28,0.056,104.3
2021-06-21T06:22:03,42.805,6.029,0.049,-0.026,0.032,102.0,103.0,102.0,13.4,1505.2,327.3,-0.8,1.8,2470.516,13.28,0.055,117.9
2021-06-21T06:25:03,42.805,6.029,0.039,-0.021,0.008,103.0,104.0,101.0,13.3,1505.2,325.7,-0.8,1.8,2470.585,13.28,0.044,118.3
2021-06-21T06:28:03,42.805,6.029,0.065,-0.035,-0.006,103.0,103.0,100.0,13.4,1505.2,327.6,-0.8,1.8,2470.554,13.28,0.073,118.3
2021-06-21T06:31:03,42.805,6.029,0.05,-0.034,-0.03,103.0,103.0,102.0,13.4,1505.2,327.1,-0.7,1.8,2470.535,13.28,0.06,124.2
2021-06-21T06:34:03,42.805,6.029,0.034,-0.036,-0.011,102.0,102.0,101.0,13.3,1505.2,325.1,-0.7,1.8,2470.494,13.28,0.049,136.6
2021-06-21T06:37:03,42.805,6.029,0.053,-0.002,0.035,102.0,103.0,101.0,13.3,1505.2,327.7,-0.7,1.8,2470.497,13.28,0.053,92.2
2021-06-21T06:40:03,42.805,6.029,0.051,-0.022,0.022,102.0,103.0,101.0,13.3,1505.2,328.5,-0.7,1.8,2470.51,13.28,0.055,113.3
2021-06-21T06:43:03,42.805,6.029,0.051,-0.029,0.001,102.0,102.0,100.0,13.4,1505.2,329.5,-0.8,1.8,2470.585,13.28,0.058,119.6
2021-06-21T06:46:03,42.805,6.029,0.042,-0.028,0.008,102.0,102.0,101.0,13.4,1505.2,324.6,-0.8,1.8,2470.508,13.28,0.05,123.7
2021-06-21T06:49:03,42.805,6.029,0.069,-0.046,0.003,102.0,103.0,101.0,13.4,1505.2,325.9,-0.7,1.9,2470.533,13.28,0.082,123.7
2021-06-21T06:52:03,42.805,6.029,0.051,-0.023,0.003,103.0,102.0,101.0,13.4,1505.2,324.7,-0.8,1.8,2470.532,13.28,0.055,114.3
2021-06-21T06:55:03,42.805,6.029,0.06,-0.021,0.008,102.0,102.0,102.0,13.3,1505.2,325.6,-0.8,1.9,2470.534,13.28,0.063,109.3
2021-06-21T06:58:03,42.805,6.029,0.056,-0.023,0.035,104.0,102.0,101.0,13.4,1505.2,325.1,-0.8,1.8,2470.484,13.28,0.06,112.3
2021-06-21T07:04:03,42.805,6.029,0.06,-0.021,0.038,102.0,103.0,101.0,13.4,1505.2,327.1,-0.8,1.8,2470.539,13.28,0.063,109.3
2021-06-21T07:07:03,42.805,6.029,0.064,-0.019,0.025,103.0,103.0,101.0,13.4,1505.2,327.2,-0.8,1.8,2470.535,13.28,0.066,106.5
2021-06-21T07:10:03,42.805,6.029,0.057,-0.011,0.0,102.0,102.0,101.0,13.4,1505.2,326.3,-0.8,1.8,2470.536,13.28,0.058,100.9
2021-06-21T07:13:03,42.805,6.029,0.063,-0.036,0.024,102.0,104.0,100.0,13.4,1505.2,326.9,-0.8,1.8,2470.515,13.28,0.072,119.7
2021-06-21T07:16:03,42.805,6.029,0.024,-0.043,-0.006,102.0,103.0,101.0,13.4,1505.2,328.0,-0.7,1.8,2470.516,13.28,0.049,150.8
2021-06-21T07:19:03,42.805,6.029,0.056,-0.043,0.027,102.0,103.0,101.0,13.3,1505.2,327.0,-0.8,1.8,2470.477,13.28,0.07,127.5
2021-06-21T07:22:03,42.805,6.029,0.049,-0.017,0.012,102.0,102.0,101.0,13.4,1505.2,328.3,-0.8,1.8,2470.481,13.28,0.051,109.1
2021-06-21T07:25:03,42.805,6.029,0.058,-0.02,0.017,103.0,103.0,101.0,13.4,1505.2,326.0,-0.7,1.8,2470.492,13.28,0.061,109.0
2021-06-21T07:28:03,42.805,6.029,0.055,-0.025,0.019,102.0,102.0,101.0,13.4,1505.2,325.1,-0.8,1.9,2470.486,13.28,0.06,114.4
2021-06-21T07:31:03,42.805,6.029,0.04,-0.034,0.003,103.0,103.0,101.0,13.3,1505.2,330.0,-0.8,1.8,2470.526,13.28,0.052,130.4
2021-06-21T07:34:03,42.805,6.029,0.072,-0.041,0.019,102.0,102.0,101.0,13.3,1505.2,328.0,-0.8,1.8,2470.498,13.28,0.082,119.7
2021-06-21T07:37:03,42.805,6.029,0.075,-0.025,0.031,103.0,101.0,101.0,13.4,1505.2,325.5,-0.8,1.8,2470.494,13.28,0.079,108.4
2021-06-21T07:40:03,42.805,6.029,0.065,-0.057,0.021,102.0,102.0,101.0,13.4,1505.2,328.6,-0.8,1.9,2470.475,13.28,0.086,131.2
2021-06-21T07:43:03,42.805,6.029,0.052,-0.037,-0.001,103.0,103.0,101.0,13.3,1505.2,328.2,-0.8,1.8,2470.519,13.28,0.063,125.4
2021-06-21T07:46:03,42.805,6.029,0.052,-0.033,0.042,102.0,102.0,101.0,13.4,1505.2,329.7,-0.7,1.8,2470.508,13.28,0.061,122.4
2021-06-21T07:49:03,42.805,6.029,0.045,-0.018,0.011,102.0,102.0,102.0,13.4,1505.2,325.3,-0.8,1.8,2470.513,13.28,0.048,111.8
2021-06-21T07:52:03,42.805,6.029,0.084,-0.044,0.022,102.0,102.0,101.0,13.4,1505.2,324.8,-0.7,1.8,2470.474,13.28,0.094,117.6
2021-06-21T07:55:03,42.805,6.029,0.071,-0.039,0.02,102.0,102.0,101.0,13.4,1505.2,325.2,-0.7,1.8,2470.491,13.28,0.081,118.8
2021-06-21T07:58:03,42.805,6.029,0.073,-0.036,0.008,102.0,104.0,101.0,13.4,1505.2,325.8,-0.7,1.8,2470.456,13.28,0.081,116.2
2021-06-21T08:04:03,42.805,6.029,0.071,-0.031,0.043,103.0,102.0,101.0,13.4,1505.2,326.5,-0.8,1.8,2470.457,13.28,0.077,113.6
2021-06-21T08:07:03,42.805,6.029,0.035,-0.028,0.006,103.0,103.0,101.0,13.4,1505.2,328.3,-0.8,1.8,2470.469,13.28,0.044,128.7
2021-06-21T08:10:03,42.805,6.029,0.072,-0.004,0.038,102.0,104.0,101.0,13.3,1505.2,325.8,-0.7,1.8,2470.459,13.28,0.072,93.2
2021-06-21T08:13:03,42.805,6.029,0.039,-0.013,0.027,100.0,103.0,102.0,13.3,1505.2,326.7,-0.8,1.8,2470.488,13.28,0.041,108.4
2021-06-21T08:16:03,42.805,6.029,0.068,-0.053,0.0,102.0,102.0,102.0,13.3,1505.2,326.4,-0.8,1.8,2470.447,13.28,0.086,127.9
2021-06-21T08:19:03,42.805,6.029,0.051,-0.026,0.009,104.0,101.0,101.0,13.3,1505.2,329.6,-0.8,1.8,2470.469,13.28,0.057,117.0
2021-06-21T08:22:03,42.805,6.029,0.047,-0.033,0.041,103.0,101.0,101.0,13.3,1505.2,328.3,-0.8,1.8,2470.45,13.28,0.057,125.1
2021-06-21T08:25:03,42.805,6.029,0.064,-0.033,0.019,103.0,104.0,101.0,13.4,1505.2,329.6,-0.7,1.9,2470.47,13.28,0.072,117.3
2021-06-21T08:28:03,42.805,6.029,0.041,-0.035,-0.014,102.0,104.0,102.0,13.3,1505.2,329.7,-0.8,1.8,2470.464,13.28,0.053,130.5
2021-06-21T08:31:03,42.805,6.029,0.063,-0.053,-0.014,102.0,103.0,100.0,13.4,1505.2,330.1,-0.7,1.8,2470.434,13.28,0.082,130.1
2021-06-21T08:34:03,42.805,6.029,0.049,-0.006,0.011,103.0,102.0,101.0,13.4,1505.2,327.1,-0.8,1.8,2470.431,13.28,0.049,97.0
2021-06-21T08:37:03,42.805,6.029,0.061,-0.042,0.014,100.0,102.0,102.0,13.4,1505.2,328.4,-0.7,1.8,2470.425,13.28,0.074,124.6
2021-06-21T08:40:03,42.805,6.029,0.068,-0.038,0.029,103.0,101.0,101.0,13.4,1505.2,326.3,-0.8,1.8,2470.43,13.28,0.077,119.2
2021-06-21T08:43:03,42.805,6.029,0.045,-0.02,0.007,102.0,103.0,100.0,13.4,1505.2,327.5,-0.7,1.8,2470.434,13.28,0.049,114.0
2021-06-21T08:46:03,42.805,6.029,0.06,-0.043,-0.011,101.0,103.0,102.0,13.4,1505.2,326.0,-0.8,1.8,2470.41,13.28,0.073,125.6
2021-06-21T08:49:03,42.805,6.029,0.055,-0.016,0.028,102.0,102.0,102.0,13.4,1505.2,325.5,-0.8,1.8,2470.39,13.28,0.057,106.2
2021-06-21T08:52:03,42.805,6.029,0.052,-0.023,0.013,102.0,103.0,101.0,13.4,1505.2,326.3,-0.7,1.8,2470.399,13.28,0.056,113.9
2021-06-21T08:55:03,42.805,6.029,0.069,-0.045,0.009,103.0,103.0,100.0,13.4,1505.2,327.7,-0.8,1.8,2470.428,13.28,0.082,123.1
2021-06-21T08:58:03,42.805,6.029,0.043,-0.02,0.018,101.0,102.0,102.0,13.4,1505.2,325.7,-0.8,1.9,2470.395,13.28,0.047,114.9
2021-06-21T09:04:03,42.805,6.029,0.069,-0.02,0.025,102.0,104.0,101.0,13.3,1505.2,328.0,-0.8,1.8,2470.447,13.28,0.071,106.2
2021-06-21T09:07:03,42.805,6.029,0.049,-0.028,0.015,102.0,102.0,101.0,13.4,1505.2,329.6,-0.8,1.9,2470.454,13.28,0.056,119.7
2021-06-21T09:10:03,42.805,6.029,0.058,-0.019,0.055,103.0,102.0,101.0,13.4,1505.2,326.0,-0.8,1.8,2470.434,13.28,0.061,108.1
2021-06-21T09:13:03,42.805,6.029,0.039,-0.043,0.012,102.0,103.0,101.0,13.4,1505.2,327.2,-0.7,1.8,2470.468,13.28,0.058,137.8
2021-06-21T09:16:03,42.805,6.029,0.052,-0.044,0.026,102.0,104.0,100.0,13.4,1505.2,328.9,-0.8,1.8,2470.416,13.28,0.068,130.2
2021-06-21T09:19:03,42.805,6.029,0.04,-0.019,-0.012,102.0,102.0,101.0,13.4,1505.2,326.3,-0.7,1.8,2470.428,13.28,0.044,115.4
2021-06-21T09:22:03,42.805,6.029,0.09,-0.04,0.043,103.0,101.0,101.0,13.3,1505.2,328.6,-0.8,1.8,2470.41,13.28,0.098,114.0
2021-06-21T09:25:03,42.805,6.029,0.072,-0.028,0.034,103.0,101.0,100.0,13.4,1505.2,328.3,-0.7,1.8,2470.442,13.28,0.077,111.2
2021-06-21T09:28:03,42.805,6.029,0.05,-0.025,0.025,101.0,103.0,101.0,13.4,1505.2,328.3,-0.7,1.8,2470.456,13.28,0.055,116.6
2021-06-21T09:31:03,42.805,6.029,0.054,-0.03,-0.001,103.0,103.0,101.0,13.4,1505.2,327.1,-0.8,1.8,2470.401,13.28,0.061,119.1
2021-06-21T09:34:03,42.805,6.029,0.047,-0.037,0.009,102.0,102.0,101.0,13.4,1505.2,327.4,-0.8,1.8,2470.386,13.28,0.059,128.2
2021-06-21T09:37:03,42.805,6.029,0.071,-0.044,0.035,102.0,103.0,102.0,13.4,1505.2,328.5,-0.7,1.8,2470.416,13.28,0.083,121.8
2021-06-21T09:40:03,42.805,6.029,0.063,-0.04,0.016,103.0,102.0,101.0,13.4,1505.2,327.1,-0.7,1.8,2470.367,13.28,0.074,122.4
2021-06-21T09:43:03,42.805,6.029,0.06,-0.028,-0.005,103.0,103.0,101.0,13.4,1505.2,326.5,-0.7,1.8,2470.396,13.28,0.066,115.0
2021-06-21T09:46:03,42.805,6.029,0.053,-0.041,0.022,103.0,103.0,101.0,13.4,1505.2,328.3,-0.7,1.8,2470.398,13.28,0.067,127.7
2021-06-21T09:49:03,42.805,6.029,0.066,-0.035,0.027,102.0,102.0,101.0,13.3,1505.2,326.8,-0.8,1.9,2470.368,13.28,0.074,117.9
2021-06-21T09:52:03,42.805,6.029,0.028,-0.042,-0.003,103.0,103.0,100.0,13.3,1505.2,326.0,-0.8,1.8,2470.417,13.28,0.05,146.3
2021-06-21T09:55:03,42.805,6.029,0.049,-0.032,0.027,101.0,104.0,101.0,13.3,1505.2,325.2,-0.8,1.8,2470.377,13.28,0.058,123.2